EWG149 EDDB-EDDS

Flight info

Callsign EWG149
Flight time N/A
Altitude 29000
Route KISUC1Q/06R KISUC Z117 ODLUN/N0415F260 DCT GALMA Z94 VAGAB/N0404F240 Z94 GORKO T726 TOSTU/N0397F230 T726 LBU
Aircraft A321/M-SDE3FGHIRWY/LB1

Departure

Time 2026-05-07 17:30
Airport Berlin Brandenburg Airport (EDDB)

Arrival

Time N/A
Airport Stuttgart Airport (EDDS)
Time Latitude Longitude Altitude Speed Heading
2026-05-07 16:51 52.36209 13.50700 155 ft 0 kts 69°
2026-05-07 17:17 52.36203 13.50673 154 ft 4 kts 69°
2026-05-07 17:18 52.36193 13.50632 154 ft 4 kts 69°
2026-05-07 17:18 52.36184 13.50590 154 ft 4 kts 69°
2026-05-07 17:18 52.36176 13.50557 154 ft 4 kts 73°
2026-05-07 17:18 52.36173 13.50516 154 ft 4 kts 106°
2026-05-07 17:19 52.36186 13.50483 154 ft 3 kts 154°
2026-05-07 17:19 52.36190 13.50479 154 ft 0 kts 159°
2026-05-07 17:21 52.36172 13.50491 154 ft 7 kts 159°
2026-05-07 17:22 52.36098 13.50538 154 ft 15 kts 159°
2026-05-07 17:22 52.35997 13.50602 154 ft 16 kts 159°
2026-05-07 17:22 52.35946 13.50634 154 ft 1 kts 159°
2026-05-07 17:22 52.35943 13.50635 154 ft 0 kts 159°
2026-05-07 17:23 52.35937 13.50639 154 ft 3 kts 159°
2026-05-07 17:23 52.35915 13.50649 154 ft 4 kts 170°
2026-05-07 17:23 52.35914 13.50649 154 ft 0 kts 170°
2026-05-07 17:23 52.35912 13.50649 154 ft 0 kts 170°
2026-05-07 17:24 52.35906 13.50651 154 ft 2 kts 173°
2026-05-07 17:24 52.35875 13.50645 154 ft 6 kts 192°
2026-05-07 17:24 52.35820 13.50636 154 ft 8 kts 180°
2026-05-07 17:24 52.35776 13.50610 154 ft 7 kts 224°
2026-05-07 17:25 52.35751 13.50532 154 ft 8 kts 244°
2026-05-07 17:25 52.35727 13.50439 154 ft 10 kts 249°
2026-05-07 17:25 52.35699 13.50315 154 ft 13 kts 250°
2026-05-07 17:25 52.35666 13.50172 154 ft 14 kts 249°
2026-05-07 17:26 52.35629 13.50021 154 ft 15 kts 248°
2026-05-07 17:26 52.35591 13.49861 154 ft 15 kts 251°
2026-05-07 17:26 52.35551 13.49692 154 ft 16 kts 249°
2026-05-07 17:26 52.35510 13.49516 154 ft 17 kts 249°
2026-05-07 17:27 52.35466 13.49332 154 ft 18 kts 249°
2026-05-07 17:27 52.35420 13.49139 154 ft 18 kts 248°
2026-05-07 17:27 52.35373 13.48940 154 ft 19 kts 249°
2026-05-07 17:27 52.35324 13.48733 154 ft 20 kts 249°
2026-05-07 17:28 52.35277 13.48538 154 ft 12 kts 245°
2026-05-07 17:28 52.35208 13.48490 154 ft 12 kts 165°
2026-05-07 17:28 52.35132 13.48540 154 ft 11 kts 148°
2026-05-07 17:28 52.35098 13.48651 154 ft 12 kts 100°
2026-05-07 17:29 52.35085 13.48787 154 ft 13 kts 98°
2026-05-07 17:29 52.35053 13.48935 154 ft 11 kts 110°
2026-05-07 17:29 52.35053 13.48974 154 ft 0 kts 80°
2026-05-07 17:29 52.35118 13.49266 154 ft 70 kts 69°
2026-05-07 17:30 52.35397 13.50438 155 ft 147 kts 69°
2026-05-07 17:30 52.35813 13.52274 466 ft 183 kts 73°
2026-05-07 17:30 52.35760 13.54340 1374 ft 190 kts 113°
2026-05-07 17:30 52.34900 13.55989 2017 ft 198 kts 139°
2026-05-07 17:31 52.33567 13.56679 2446 ft 211 kts 182°
2026-05-07 17:31 52.32204 13.55739 2849 ft 222 kts 218°
2026-05-07 17:31 52.31053 13.53973 3339 ft 232 kts 229°
2026-05-07 17:31 52.30033 13.51838 3647 ft 247 kts 231°
2026-05-07 17:32 52.28734 13.49863 3953 ft 268 kts 217°
2026-05-07 17:32 52.27283 13.47906 4603 ft 273 kts 229°
2026-05-07 17:32 52.26398 13.45213 5259 ft 273 kts 262°
2026-05-07 17:32 52.26285 13.43154 5727 ft 276 kts 270°
2026-05-07 17:33 52.26262 13.38934 6747 ft 280 kts 271°
2026-05-07 17:33 52.26264 13.35738 7475 ft 282 kts 271°
2026-05-07 17:33 52.26279 13.32534 8183 ft 283 kts 271°
2026-05-07 17:33 52.26293 13.29297 8872 ft 285 kts 271°
2026-05-07 17:34 52.26298 13.26050 9557 ft 288 kts 270°
2026-05-07 17:34 52.26110 13.22780 10219 ft 292 kts 256°
2026-05-07 17:34 52.25386 13.19684 10822 ft 294 kts 240°
2026-05-07 17:34 52.24305 13.16737 11062 ft 313 kts 238°
2026-05-07 17:35 52.23137 13.13611 11194 ft 332 kts 238°
2026-05-07 17:35 52.21898 13.10310 11320 ft 351 kts 238°
2026-05-07 17:35 52.21042 13.08032 11509 ft 358 kts 238°
2026-05-07 17:35 52.19733 13.04552 12008 ft 363 kts 238°